This is the latest recevied weather packets stored in our database for station/object IZ8GMP-13. If no packets are shown the sender has not sent any weather packets the latest 10 day(s).
| Time | Temp. | Humidity | Pressure | Rain* | Wind** | Luminosity | Snow |
|---|---|---|---|---|---|---|---|
| 1777412733 | 17.22° C | 50% | 1016.6 hPa | - | - | - | - |
| 1777411530 | 17.22° C | 46% | 1016.9 hPa | - | - | - | - |
| 1777410326 | 17.78° C | 43% | 1016.8 hPa | - | - | - | - |
| 1777409123 | 17.78° C | 41% | 1016.5 hPa | - | - | - | - |
| 1777407920 | 18.33° C | 38% | 1016.5 hPa | - | - | - | - |
| 1777406716 | 18.33° C | 37% | 1016.3 hPa | - | - | - | - |
| 1777404309 | 18.33° C | 44% | 1016.5 hPa | - | - | - | - |
| 1777400698 | 18.89° C | 44% | 1016 hPa | - | - | - | - |
| 1777399494 | 18.89° C | 48% | 1016 hPa | - | - | - | - |
| 1777398290 | 18.89° C | 50% | 1015.9 hPa | - | - | - | - |
| 1777397086 | 19.44° C | 60% | 1015.8 hPa | - | - | - | - |
| 1777395882 | 20° C | 62% | 1015.8 hPa | - | - | - | - |
| 1777394678 | 20.56° C | 64% | 1015.6 hPa | - | - | - | - |
| 1777393473 | 20.56° C | 64% | 1015.6 hPa | - | - | - | - |
| 1777392269 | 21.11° C | 64% | 1015.4 hPa | - | - | - | - |
| 1777391065 | 22.22° C | 54% | 1015.4 hPa | - | - | - | - |
| 1777389861 | 21.67° C | 51% | 1015.4 hPa | - | - | - | - |
| 1777388657 | 22.22° C | 50% | 1015.3 hPa | - | - | - | - |
| 1777387453 | 22.22° C | 47% | 1015.1 hPa | - | - | - | - |
| 1777386249 | 22.22° C | 49% | 1015.2 hPa | - | - | - | - |
| 1777385044 | 22.78° C | 43% | 1015.3 hPa | - | - | - | - |
| 1777383840 | 22.22° C | 46% | 1015.3 hPa | - | - | - | - |
| 1777382636 | 22.22° C | 56% | 1015.6 hPa | - | - | - | - |
| 1777381432 | 22.22° C | 58% | 1015.7 hPa | - | - | - | - |
| 1777380980 | 22.22° C | 56% | 1015.7 hPa | - | - | - | - |
* Rain since midnight (hover to see other rain measurements)
** Current wind speed in m/s (hover to see current wind gust speed)